When you browse on this site, cookies collect data to enhance your experience and personalize the content and advertising you see.
Visit our Privacy Policy to learn more. By continuing to use the site, you agree to this use of cookies and data.
  • In Hungary
  • List of Countries
  • For 7 days
  • Water Temperature
  • Satellite Maps
  • Weather Map
  • News
  • Weather Widgets
  • user-avatar
    Login

    Hourly Weather Veselaya Bahmutovka

    Today, 18 November, Sunday

    Time Temperature Precipitation Wind Pressure Humidity
    00:00 -5°C° 0 mm 2 mps 765 mmHg 77%
    01:00 -5°C° 0 mm 2 mps 765 mmHg 77%
    02:00 -6°C° 0 mm 2 mps 764 mmHg 77%
    03:00 -6°C° 0 mm 2 mps 764 mmHg 77%
    04:00 -5°C° 0 mm 2 mps 764 mmHg 77%
    05:00 -5°C° 0 mm 2 mps 764 mmHg 78%
    06:00 -5°C° 0 mm 2 mps 764 mmHg 79%
    07:00 -3°C° 0 mm 1 mps 763 mmHg 78%
    08:00 -3°C° 0 mm 1 mps 763 mmHg 78%
    09:00 -2°C° 0 mm 1 mps 763 mmHg 78%
    10:00 -1°C° 0 mm 1 mps 763 mmHg 76%
    11:00 -1°C° 0 mm 1 mps 763 mmHg 75%
    12:00 0°C° 0 mm 1 mps 763 mmHg 74%
    13:00 +1°C° 0 mm 1 mps 762 mmHg 76%
    14:00 0°C° 0 mm 0 mps 762 mmHg 78%
    15:00 0°C° 0 mm 0 mps 762 mmHg 79%
    16:00 -1°C° 0 mm 0 mps 762 mmHg 79%
    17:00 -1°C° 0 mm 0 mps 762 mmHg 79%
    18:00 -2°C° 0 mm 0 mps 762 mmHg 79%
    19:00 -2°C° 0 mm 0 mps 762 mmHg 79%
    20:00 -1°C° 0 mm 1 mps 762 mmHg 80%
    21:00 -1°C° 0 mm 1 mps 762 mmHg 80%
    22:00 -2°C° 0 mm 1 mps 762 mmHg 80%
    23:00 -2°C° 0 mm 1 mps 762 mmHg 80%

    Tomorrow, 19 November, Monday

    Time Temperature Precipitation Wind Pressure Humidity
    00:00 -2°C° 0 mm 1 mps 762 mmHg 81%
    01:00 -3°C° 0 mm 1 mps 762 mmHg 81%
    02:00 -3°C° 0 mm 1 mps 762 mmHg 82%
    03:00 -4°C° 0 mm 1 mps 762 mmHg 83%
    04:00 -4°C° 0 mm 1 mps 762 mmHg 84%
    05:00 -4°C° 0 mm 1 mps 762 mmHg 85%
    06:00 -4°C° 0 mm 1 mps 762 mmHg 86%
    07:00 -6°C° 0 mm 2 mps 763 mmHg 86%
    08:00 -5°C° 0 mm 2 mps 763 mmHg 87%
    09:00 -5°C° 0 mm 2 mps 763 mmHg 88%
    10:00 -4°C° 0 mm 2 mps 763 mmHg 88%
    11:00 -4°C° 0 mm 3 mps 763 mmHg 88%
    12:00 -1°C° 0 mm 3 mps 763 mmHg 88%
    13:00 -1°C° 0 mm 3 mps 762 mmHg 88%
    14:00 -1°C° 0 mm 3 mps 762 mmHg 88%
    15:00 -1°C° 0 mm 3 mps 762 mmHg 88%
    16:00 -1°C° 0 mm 3 mps 762 mmHg 87%
    17:00 -2°C° 0 mm 3 mps 762 mmHg 86%
    18:00 -4°C° 0 mm 3 mps 762 mmHg 85%
    19:00 -2°C° 0 mm 3 mps 761 mmHg 83%
    20:00 -3°C° 0 mm 4 mps 761 mmHg 82%
    21:00 -3°C° 0 mm 4 mps 761 mmHg 81%
    22:00 -3°C° 0 mm 4 mps 761 mmHg 83%
    23:00 -2°C° 0 mm 4 mps 760 mmHg 84%

    Day after tomorrow, 20 November, Tuesday

    Time Temperature Precipitation Wind Pressure Humidity
    00:00 -1°C° 0 mm 3 mps 760 mmHg 85%
    01:00 -2°C° 0.3 mm 4 mps 760 mmHg 87%
    02:00 -2°C° 0.3 mm 4 mps 760 mmHg 88%
    03:00 -2°C° 0.3 mm 4 mps 759 mmHg 90%
    04:00 -2°C° 0.3 mm 4 mps 759 mmHg 91%
    05:00 -2°C° 0.3 mm 5 mps 758 mmHg 91%
    06:00 -1°C° 0.3 mm 5 mps 758 mmHg 92%
    07:00 -1°C° 0.9 mm 5 mps 758 mmHg 93%
    08:00 -1°C° 0.9 mm 5 mps 758 mmHg 94%
    09:00 -1°C° 0.9 mm 5 mps 758 mmHg 96%
    10:00 -1°C° 0.7 mm 5 mps 757 mmHg 97%
    11:00 -2°C° 0.7 mm 6 mps 757 mmHg 97%
    12:00 -2°C° 0.7 mm 6 mps 757 mmHg 98%
    13:00 -2°C° 0.5 mm 6 mps 756 mmHg 98%
    14:00 -1°C° 0.5 mm 5 mps 756 mmHg 99%
    15:00 -1°C° 0.5 mm 5 mps 756 mmHg 99%
    16:00 -1°C° 0.6 mm 5 mps 756 mmHg 98%
    17:00 -1°C° 0.6 mm 5 mps 756 mmHg 98%
    18:00 -1°C° 0.6 mm 5 mps 756 mmHg 97%
    19:00 -1°C° 0.1 mm 5 mps 756 mmHg 96%
    20:00 -1°C° 0.1 mm 5 mps 756 mmHg 96%
    21:00 -1°C° 0.1 mm 5 mps 757 mmHg 95%
    22:00 -1°C° 0 mm 5 mps 757 mmHg 94%
    23:00 -2°C° 0 mm 5 mps 757 mmHg 93%

    21 November, Wednesday

    Time Temperature Precipitation Wind Pressure Humidity
    00:00 -2°C° 0 mm 4 mps 758 mmHg 92%
    01:00 -3°C° 0 mm 4 mps 758 mmHg 92%
    02:00 -2°C° 0 mm 3 mps 758 mmHg 92%
    03:00 -4°C° 0 mm 3 mps 759 mmHg 92%
    04:00 -4°C° 0 mm 3 mps 759 mmHg 91%
    05:00 -4°C° 0 mm 3 mps 759 mmHg 91%
    06:00 -5°C° 0 mm 3 mps 759 mmHg 90%
    07:00 -4°C° 0 mm 3 mps 759 mmHg 89%
    08:00 -4°C° 0 mm 3 mps 759 mmHg 88%
    09:00 -4°C° 0 mm 3 mps 760 mmHg 87%
    10:00 -4°C° 0 mm 3 mps 759 mmHg 86%
    11:00 -2°C° 0 mm 3 mps 759 mmHg 86%
    12:00 -2°C° 0 mm 3 mps 759 mmHg 85%
    13:00 -1°C° 0 mm 3 mps 759 mmHg 86%
    14:00 -1°C° 0 mm 3 mps 759 mmHg 87%
    15:00 -1°C° 0 mm 3 mps 758 mmHg 88%
    16:00 -2°C° 0.1 mm 3 mps 758 mmHg 89%
    17:00 -2°C° 0.1 mm 3 mps 758 mmHg 90%
    18:00 -2°C° 0.1 mm 3 mps 758 mmHg 91%
    19:00 -2°C° 0.1 mm 3 mps 758 mmHg 91%
    20:00 -2°C° 0.1 mm 3 mps 758 mmHg 91%
    21:00 -4°C° 0.1 mm 3 mps 758 mmHg 91%
    22:00 -4°C° 0 mm 3 mps 758 mmHg 91%
    23:00 -5°C° 0 mm 3 mps 758 mmHg 90%

    22 November, Thursday

    Time Temperature Precipitation Wind Pressure Humidity
    00:00 -6°C° 0 mm 3 mps 758 mmHg 90%
    01:00 -6°C° 0 mm 3 mps 758 mmHg 90%
    02:00 -7°C° 0 mm 3 mps 758 mmHg 89%
    03:00 -7°C° 0 mm 3 mps 758 mmHg 89%
    04:00 -7°C° 0 mm 3 mps 758 mmHg 89%
    05:00 -7°C° 0 mm 3 mps 758 mmHg 89%
    06:00 -7°C° 0 mm 2 mps 758 mmHg 90%
    07:00 -6°C° 0 mm 2 mps 758 mmHg 90%
    08:00 -6°C° 0 mm 2 mps 759 mmHg 90%
    09:00 -6°C° 0 mm 2 mps 759 mmHg 90%
    10:00 -6°C° 0 mm 3 mps 759 mmHg 90%
    11:00 -5°C° 0 mm 3 mps 759 mmHg 89%
    12:00 -4°C° 0 mm 3 mps 759 mmHg 89%
    13:00 -2°C° 0 mm 3 mps 759 mmHg 89%
    14:00 -2°C° 0 mm 3 mps 758 mmHg 89%
    15:00 -2°C° 0 mm 3 mps 758 mmHg 89%
    16:00 -4°C° 0 mm 3 mps 758 mmHg 89%
    17:00 -5°C° 0 mm 3 mps 758 mmHg 90%
    18:00 -6°C° 0 mm 3 mps 758 mmHg 90%
    19:00 -5°C° 0 mm 2 mps 759 mmHg 89%
    20:00 -6°C° 0 mm 2 mps 759 mmHg 88%
    21:00 -6°C° 0 mm 2 mps 759 mmHg 88%
    22:00 -6°C° 0 mm 2 mps 759 mmHg 88%
    23:00 -7°C° 0 mm 3 mps 759 mmHg 88%

    23 November, Friday

    Time Temperature Precipitation Wind Pressure Humidity
    00:00 -7°C° 0 mm 3 mps 759 mmHg 87%
    01:00 -7°C° 0 mm 3 mps 759 mmHg 88%
    02:00 -7°C° 0 mm 3 mps 759 mmHg 88%
    03:00 -7°C° 0 mm 3 mps 759 mmHg 88%
    04:00 -7°C° 0 mm 3 mps 760 mmHg 89%
    05:00 -7°C° 0 mm 3 mps 760 mmHg 89%
    06:00 -7°C° 0 mm 3 mps 760 mmHg 90%
    07:00 -7°C° 0 mm 3 mps 761 mmHg 90%
    08:00 -7°C° 0 mm 3 mps 762 mmHg 90%
    09:00 -6°C° 0 mm 3 mps 763 mmHg 90%
    10:00 -5°C° 0 mm 3 mps 763 mmHg 89%
    11:00 -4°C° 0 mm 3 mps 764 mmHg 87%
    12:00 -2°C° 0 mm 3 mps 764 mmHg 85%
    13:00 -2°C° 0 mm 3 mps 764 mmHg 85%
    14:00 -2°C° 0 mm 3 mps 765 mmHg 85%
    15:00 -2°C° 0 mm 2 mps 765 mmHg 85%
    16:00 -3°C° 0 mm 2 mps 765 mmHg 85%
    17:00 -4°C° 0 mm 2 mps 766 mmHg 85%
    18:00 -5°C° 0 mm 2 mps 766 mmHg 85%
    19:00 -4°C° 0 mm 1 mps 767 mmHg 84%
    20:00 -4°C° 0 mm 1 mps 767 mmHg 83%
    21:00 -6°C° 0 mm 1 mps 767 mmHg 82%
    22:00 -6°C° 0 mm 1 mps 767 mmHg 81%
    23:00 -6°C° 0 mm 1 mps 767 mmHg 80%
    Show more